Time,TemperatureF,DewpointF,PressureIn,WindDirection,WindDirectionDegrees,WindSpeedMPH,WindSpeedGustMPH,Humidity,HourlyPrecipIn,Conditions,Clouds,dailyrainin,SoftwareType,DateUTC
2013-04-13 00:00:00,58.9,44.2,29.86,WNW,290,0.0,4.0,58,0.00,,---,0.00,VWS V14.00,2013-04-13 04:00:00,
2013-04-13 00:05:00,58.9,44.2,29.86,WNW,290,0.0,4.0,58,0.00,,---,0.00,VWS V14.00,2013-04-13 04:05:00,
2013-04-13 00:10:00,58.7,44.0,29.87,WNW,290,0.0,4.0,58,0.00,,---,0.00,VWS V14.00,2013-04-13 04:10:00,
2013-04-13 00:15:00,58.6,43.9,29.86,WNW,290,1.0,4.0,58,0.00,,---,0.00,VWS V14.00,2013-04-13 04:15:00,
2013-04-13 00:20:00,58.6,43.9,29.86,WNW,288,1.0,4.0,58,0.00,,---,0.00,VWS V14.00,2013-04-13 04:20:00,
2013-04-13 00:25:00,58.6,43.4,29.87,WNW,287,0.0,4.0,57,0.00,,---,0.00,VWS V14.00,2013-04-13 04:25:00,
2013-04-13 00:30:00,58.5,43.3,29.87,WNW,287,0.0,1.0,57,0.00,,---,0.00,VWS V14.00,2013-04-13 04:30:00,
2013-04-13 00:35:00,58.4,43.2,29.87,WNW,284,0.0,5.0,57,0.00,,---,0.00,VWS V14.00,2013-04-13 04:35:00,
2013-04-13 00:40:00,58.4,43.2,29.87,WNW,284,0.0,5.0,57,0.00,,---,0.00,VWS V14.00,2013-04-13 04:40:00,
2013-04-13 00:45:00,58.3,43.2,29.87,WNW,284,0.0,5.0,57,0.00,,---,0.00,VWS V14.00,2013-04-13 04:45:00,
2013-04-13 00:50:00,58.3,43.2,29.87,West,277,1.0,5.0,57,0.00,,---,0.00,VWS V14.00,2013-04-13 04:50:00,
2013-04-13 00:55:00,58.3,43.2,29.87,West,281,0.0,5.0,57,0.00,,---,0.00,VWS V14.00,2013-04-13 04:55:00,
2013-04-13 01:00:00,58.4,43.2,29.87,WNW,283,0.0,4.0,57,0.00,,---,0.00,VWS V14.00,2013-04-13 05:00:00,
2013-04-13 01:05:00,58.4,43.2,29.88,WNW,282,0.0,4.0,57,0.00,,---,0.00,VWS V14.00,2013-04-13 05:05:00,
2013-04-13 01:10:00,58.3,43.2,29.88,West,281,0.0,4.0,57,0.00,,---,0.00,VWS V14.00,2013-04-13 05:10:00,
2013-04-13 01:15:00,58.2,42.6,29.87,NW,313,0.0,7.0,56,0.00,,---,0.00,VWS V14.00,2013-04-13 05:15:00,
2013-04-13 01:20:00,58.2,43.1,29.87,NW,311,0.0,7.0,57,0.00,,---,0.00,VWS V14.00,2013-04-13 05:20:00,
2013-04-13 01:25:00,58.1,43.0,29.87,NW,304,1.0,7.0,57,0.00,,---,0.00,VWS V14.00,2013-04-13 05:25:00,
2013-04-13 01:30:00,58.0,42.9,29.87,NW,317,0.0,6.0,57,0.00,,---,0.00,VWS V14.00,2013-04-13 05:30:00,
2013-04-13 01:35:00,57.8,42.7,29.87,NW,313,1.0,7.0,57,0.00,,---,0.00,VWS V14.00,2013-04-13 05:35:00,
2013-04-13 01:40:00,57.6,43.0,29.87,NW,310,0.0,7.0,58,0.00,,---,0.00,VWS V14.00,2013-04-13 05:40:00,
2013-04-13 01:45:00,57.4,43.2,29.86,NW,315,0.0,7.0,59,0.00,,---,0.00,VWS V14.00,2013-04-13 05:45:00,
2013-04-13 01:50:00,57.1,42.9,29.86,NW,313,0.0,7.0,59,0.00,,---,0.00,VWS V14.00,2013-04-13 05:50:00,
2013-04-13 01:55:00,57.0,42.8,29.86,NW,313,0.0,7.0,59,0.00,,---,0.00,VWS V14.00,2013-04-13 05:55:00,
2013-04-13 02:00:00,56.8,42.6,29.87,NW,315,0.0,4.0,59,0.00,,---,0.00,VWS V14.00,2013-04-13 06:00:00,
2013-04-13 02:05:00,56.6,42.9,29.87,NW,313,0.0,4.0,60,0.00,,---,0.00,VWS V14.00,2013-04-13 06:05:00,
2013-04-13 02:10:00,56.4,42.7,29.87,NW,313,0.0,5.0,60,0.00,,---,0.00,VWS V14.00,2013-04-13 06:10:00,
2013-04-13 02:15:00,56.2,42.5,29.87,NW,312,0.0,5.0,60,0.00,,---,0.00,VWS V14.00,2013-04-13 06:15:00,
2013-04-13 02:20:00,56.0,42.8,29.87,NW,312,0.0,5.0,61,0.00,,---,0.00,VWS V14.00,2013-04-13 06:20:00,
2013-04-13 02:25:00,55.8,42.6,29.87,NW,312,0.0,5.0,61,0.00,,---,0.00,VWS V14.00,2013-04-13 06:25:00,
2013-04-13 02:30:00,55.6,42.4,29.87,NW,312,0.0,4.0,61,0.00,,---,0.00,VWS V14.00,2013-04-13 06:30:00,
2013-04-13 02:35:00,55.4,42.2,29.87,NW,312,1.0,4.0,61,0.00,,---,0.00,VWS V14.00,2013-04-13 06:35:00,
2013-04-13 02:40:00,55.4,42.2,29.87,NW,313,1.0,5.0,61,0.00,,---,0.00,VWS V14.00,2013-04-13 06:40:00,
2013-04-13 02:45:00,55.3,42.1,29.87,NW,313,0.0,5.0,61,0.00,,---,0.00,VWS V14.00,2013-04-13 06:45:00,
2013-04-13 02:50:00,55.1,41.9,29.87,NW,313,0.0,5.0,61,0.00,,---,0.00,VWS V14.00,2013-04-13 06:50:00,
2013-04-13 02:55:00,55.0,42.2,29.87,NW,313,0.0,5.0,62,0.00,,---,0.00,VWS V14.00,2013-04-13 06:55:00,
2013-04-13 03:00:00,54.9,42.1,29.86,NW,313,0.0,1.0,62,0.00,,---,0.00,VWS V14.00,2013-04-13 07:00:00,
2013-04-13 03:05:00,54.8,42.0,29.86,NW,313,0.0,2.0,62,0.00,,---,0.00,VWS V14.00,2013-04-13 07:05:00,
2013-04-13 03:11:00,54.6,41.9,29.86,NW,313,0.0,2.0,62,0.00,,---,0.00,VWS V14.00,2013-04-13 07:11:00,
2013-04-13 03:16:00,54.5,41.8,29.86,NW,313,0.0,2.0,62,0.00,,---,0.00,VWS V14.00,2013-04-13 07:16:00,
2013-04-13 03:21:00,54.4,42.1,29.87,NW,315,1.0,2.0,63,0.00,,---,0.00,VWS V14.00,2013-04-13 07:21:00,
2013-04-13 03:26:00,54.3,42.0,29.87,NW,312,0.0,4.0,63,0.00,,---,0.00,VWS V14.00,2013-04-13 07:26:00,
2013-04-13 03:31:00,54.2,41.9,29.86,NW,312,0.0,4.0,63,0.00,,---,0.00,VWS V14.00,2013-04-13 07:31:00,
2013-04-13 03:37:00,54.1,41.8,29.86,NW,312,4.0,4.0,63,0.00,,---,0.00,VWS V14.00,2013-04-13 07:37:00,
2013-04-13 03:42:00,54.1,41.8,29.86,NW,309,2.0,5.0,63,0.00,,---,0.00,VWS V14.00,2013-04-13 07:42:00,
2013-04-13 03:47:00,54.0,41.7,29.86,NW,306,0.0,5.0,63,0.00,,---,0.00,VWS V14.00,2013-04-13 07:47:00,
2013-04-13 03:52:00,53.9,42.0,29.86,NW,306,0.0,5.0,64,0.00,,---,0.00,VWS V14.00,2013-04-13 07:52:00,
2013-04-13 03:57:00,53.9,42.0,29.87,NW,306,0.0,1.0,64,0.00,,---,0.00,VWS V14.00,2013-04-13 07:57:00,
2013-04-13 04:02:00,53.8,41.9,29.87,NW,306,0.0,2.0,64,0.00,,---,0.00,VWS V14.00,2013-04-13 08:02:00,
2013-04-13 04:07:00,53.7,41.8,29.87,NW,306,0.0,2.0,64,0.00,,---,0.00,VWS V14.00,2013-04-13 08:07:00,
2013-04-13 04:12:00,53.6,41.7,29.87,NW,306,0.0,2.0,64,0.00,,---,0.00,VWS V14.00,2013-04-13 08:12:00,
2013-04-13 04:17:00,53.4,41.9,29.87,NW,306,0.0,2.0,65,0.00,,---,0.00,VWS V14.00,2013-04-13 08:17:00,
2013-04-13 04:22:00,53.2,41.8,29.87,NW,306,0.0,2.0,65,0.00,,---,0.00,VWS V14.00,2013-04-13 08:22:00,
2013-04-13 04:27:00,53.0,41.6,29.87,NW,306,0.0,0.0,65,0.00,,---,0.00,VWS V14.00,2013-04-13 08:27:00,
2013-04-13 04:32:00,52.8,41.4,29.87,NW,304,0.0,2.0,65,0.00,,---,0.00,VWS V14.00,2013-04-13 08:32:00,
2013-04-13 04:37:00,52.8,41.4,29.87,NW,305,4.0,5.0,65,0.00,,---,0.00,VWS V14.00,2013-04-13 08:37:00,
2013-04-13 04:42:00,52.8,41.4,29.87,NW,305,2.0,5.0,65,0.00,,---,0.00,VWS V14.00,2013-04-13 08:42:00,
2013-04-13 04:47:00,52.8,41.8,29.87,NW,306,2.0,5.0,66,0.00,,---,0.00,VWS V14.00,2013-04-13 08:47:00,
2013-04-13 04:52:00,52.7,41.7,29.87,WNW,300,0.0,5.0,66,0.00,,---,0.00,VWS V14.00,2013-04-13 08:52:00,
2013-04-13 04:57:00,52.7,41.7,29.87,WNW,300,0.0,0.0,66,0.00,,---,0.00,VWS V14.00,2013-04-13 08:57:00,
2013-04-13 05:03:00,52.7,41.7,29.87,WNW,297,0.0,5.0,66,0.00,,---,0.00,VWS V14.00,2013-04-13 09:03:00,
2013-04-13 05:08:00,52.7,41.7,29.87,WNW,303,0.0,5.0,66,0.00,,---,0.00,VWS V14.00,2013-04-13 09:08:00,
2013-04-13 05:13:00,52.8,41.4,29.87,NW,308,0.0,5.0,65,0.00,,---,0.00,VWS V14.00,2013-04-13 09:13:00,
2013-04-13 05:18:00,52.8,41.4,29.87,NW,320,0.0,6.0,65,0.00,,---,0.00,VWS V14.00,2013-04-13 09:18:00,
2013-04-13 05:23:00,52.8,41.8,29.87,NW,319,0.0,6.0,66,0.00,,---,0.00,VWS V14.00,2013-04-13 09:23:00,
2013-04-13 05:28:00,52.8,41.4,29.88,NW,315,0.0,4.0,65,0.00,,---,0.00,VWS V14.00,2013-04-13 09:28:00,
2013-04-13 05:33:00,52.8,41.4,29.87,NW,314,0.0,4.0,65,0.00,,---,0.00,VWS V14.00,2013-04-13 09:33:00,
2013-04-13 05:38:00,52.7,41.7,29.88,NW,314,1.0,4.0,66,0.00,,---,0.00,VWS V14.00,2013-04-13 09:38:00,
2013-04-13 05:43:00,52.7,41.7,29.88,NW,311,0.0,4.0,66,0.00,,---,0.00,VWS V14.00,2013-04-13 09:43:00,
2013-04-13 05:49:00,52.6,41.6,29.88,NW,311,0.0,4.0,66,0.00,,---,0.00,VWS V14.00,2013-04-13 09:49:00,
2013-04-13 05:54:00,52.4,41.4,29.88,NW,311,0.0,4.0,66,0.00,,---,0.00,VWS V14.00,2013-04-13 09:54:00,
2013-04-13 05:59:00,52.3,41.7,29.88,NW,311,0.0,1.0,67,0.00,,---,0.00,VWS V14.00,2013-04-13 09:59:00,
2013-04-13 06:04:00,52.2,41.6,29.88,NW,311,0.0,5.0,67,0.00,,---,0.00,VWS V14.00,2013-04-13 10:04:00,
2013-04-13 06:09:00,52.0,41.8,29.89,NW,313,0.0,5.0,68,0.00,,---,0.00,VWS V14.00,2013-04-13 10:09:00,
2013-04-13 06:14:00,51.9,41.7,29.89,NW,313,0.0,5.0,68,0.00,,---,0.00,VWS V14.00,2013-04-13 10:14:00,
2013-04-13 06:19:00,51.6,41.4,29.89,NW,313,0.0,5.0,68,0.00,,---,0.00,VWS V14.00,2013-04-13 10:19:00,
2013-04-13 06:25:00,51.4,41.6,29.89,NW,313,0.0,5.0,69,0.00,,---,0.00,VWS V14.00,2013-04-13 10:25:00,
2013-04-13 06:30:00,51.1,41.7,29.90,NW,313,0.0,0.0,70,0.00,,---,0.00,VWS V14.00,2013-04-13 10:30:00,
2013-04-13 06:35:00,50.8,41.8,29.89,NW,313,0.0,0.0,71,0.00,,---,0.00,VWS V14.00,2013-04-13 10:35:00,
2013-04-13 06:40:00,50.5,41.5,29.90,NW,313,0.0,1.0,71,0.00,,---,0.00,VWS V14.00,2013-04-13 10:40:00,
2013-04-13 06:45:00,50.3,41.6,29.90,NW,313,0.0,1.0,72,0.00,,---,0.00,VWS V14.00,2013-04-13 10:45:00,
2013-04-13 06:50:00,50.1,41.4,29.90,NW,313,0.0,2.0,72,0.00,,---,0.00,VWS V14.00,2013-04-13 10:50:00,
2013-04-13 06:55:00,50.0,41.3,29.90,NW,313,0.0,2.0,72,0.00,,---,0.00,VWS V14.00,2013-04-13 10:55:00,
2013-04-13 07:00:00,49.9,41.6,29.90,NW,313,0.0,1.0,73,0.00,,---,0.00,VWS V14.00,2013-04-13 11:00:00,
2013-04-13 07:05:00,49.7,41.4,29.90,NW,313,0.0,2.0,73,0.00,,---,0.00,VWS V14.00,2013-04-13 11:05:00,
2013-04-13 07:10:00,49.6,41.3,29.90,NW,313,0.0,2.0,73,0.00,,---,0.00,VWS V14.00,2013-04-13 11:10:00,
2013-04-13 07:15:00,49.5,41.6,29.91,NW,313,0.0,2.0,74,0.00,,---,0.00,VWS V14.00,2013-04-13 11:15:00,
2013-04-13 07:20:00,49.2,41.3,29.91,NW,313,0.0,2.0,74,0.00,,---,0.00,VWS V14.00,2013-04-13 11:20:00,
2013-04-13 07:25:00,49.0,41.4,29.92,NW,313,0.0,2.0,75,0.00,,---,0.00,VWS V14.00,2013-04-13 11:25:00,
2013-04-13 07:30:00,48.9,41.3,29.92,NW,313,0.0,0.0,75,0.00,,---,0.00,VWS V14.00,2013-04-13 11:30:00,
2013-04-13 07:35:00,48.8,41.2,29.93,NW,313,0.0,1.0,75,0.00,,---,0.00,VWS V14.00,2013-04-13 11:35:00,
2013-04-13 07:40:00,48.8,41.2,29.93,NW,313,0.0,1.0,75,0.00,,---,0.00,VWS V14.00,2013-04-13 11:40:00,
2013-04-13 07:45:00,49.0,41.8,29.93,NW,313,0.0,1.0,76,0.00,,---,0.00,VWS V14.00,2013-04-13 11:45:00,
2013-04-13 07:50:00,49.3,42.1,29.94,NW,313,0.0,1.0,76,0.00,,---,0.00,VWS V14.00,2013-04-13 11:50:00,
2013-04-13 07:55:00,49.8,42.2,29.94,NW,313,0.0,1.0,75,0.00,,---,0.00,VWS V14.00,2013-04-13 11:55:00,
2013-04-13 08:01:00,50.3,42.3,29.94,NW,313,0.0,0.0,74,0.00,,---,0.00,VWS V14.00,2013-04-13 12:01:00,
2013-04-13 08:06:00,50.8,42.5,29.94,NW,313,0.0,1.0,73,0.00,,---,0.00,VWS V14.00,2013-04-13 12:06:00,
2013-04-13 08:11:00,51.2,42.9,29.94,NE,41,0.0,1.0,73,0.00,,---,0.00,VWS V14.00,2013-04-13 12:11:00,
2013-04-13 08:16:00,51.7,43.3,29.95,NE,41,0.0,1.0,73,0.00,,---,0.00,VWS V14.00,2013-04-13 12:16:00,
2013-04-13 08:21:00,52.3,43.2,29.95,NE,37,0.0,2.0,71,0.00,,---,0.00,VWS V14.00,2013-04-13 12:21:00,
2013-04-13 08:26:00,52.9,43.4,29.95,NE,37,0.0,3.0,70,0.00,,---,0.00,VWS V14.00,2013-04-13 12:26:00,
2013-04-13 08:31:00,53.6,44.1,29.96,NE,37,0.0,1.0,70,0.00,,---,0.00,VWS V14.00,2013-04-13 12:31:00,
2013-04-13 08:36:00,54.1,43.8,29.96,North,5,2.0,3.0,68,0.00,,---,0.00,VWS V14.00,2013-04-13 12:36:00,
2013-04-13 08:41:00,54.5,43.8,29.96,North,5,0.0,3.0,67,0.00,,---,0.00,VWS V14.00,2013-04-13 12:41:00,
2013-04-13 08:47:00,54.9,43.8,29.97,North,5,0.0,4.0,66,0.00,,---,0.00,VWS V14.00,2013-04-13 12:47:00,
2013-04-13 08:51:00,55.2,44.0,29.96,NNE,15,1.0,5.0,66,0.00,,---,0.00,VWS V14.00,2013-04-13 12:51:00,
2013-04-13 08:57:00,55.5,43.9,29.96,NE,40,1.0,5.0,65,0.00,,---,0.00,VWS V14.00,2013-04-13 12:57:00,
2013-04-13 09:02:00,56.0,44.0,29.97,East,80,5.0,5.0,64,0.00,,---,0.00,VWS V14.00,2013-04-13 13:02:00,
2013-04-13 09:07:00,56.1,43.7,29.97,NNE,31,1.0,7.0,63,0.00,,---,0.00,VWS V14.00,2013-04-13 13:07:00,
2013-04-13 09:12:00,56.1,44.1,29.97,North,5,1.0,7.0,64,0.00,,---,0.00,VWS V14.00,2013-04-13 13:12:00,
2013-04-13 09:17:00,56.5,44.5,29.97,NE,37,1.0,7.0,64,0.00,,---,0.00,VWS V14.00,2013-04-13 13:17:00,
2013-04-13 09:22:00,57.0,44.5,29.97,NE,35,1.0,7.0,63,0.00,,---,0.00,VWS V14.00,2013-04-13 13:22:00,
2013-04-13 09:27:00,57.5,44.6,29.97,NNE,33,3.0,4.0,62,0.00,,---,0.00,VWS V14.00,2013-04-13 13:27:00,
2013-04-13 09:32:00,57.9,45.0,29.98,NNE,30,0.0,7.0,62,0.00,,---,0.00,VWS V14.00,2013-04-13 13:32:00,
2013-04-13 09:37:00,58.5,45.1,29.98,NNE,26,1.0,7.0,61,0.00,,---,0.00,VWS V14.00,2013-04-13 13:37:00,
2013-04-13 09:43:00,59.0,45.2,29.98,NNE,26,2.0,7.0,60,0.00,,---,0.00,VWS V14.00,2013-04-13 13:43:00,
2013-04-13 09:48:00,59.5,45.6,29.98,NNW,338,4.0,7.0,60,0.00,,---,0.00,VWS V14.00,2013-04-13 13:48:00,
2013-04-13 09:53:00,60.2,45.4,29.98,North,9,2.0,7.0,58,0.00,,---,0.00,VWS V14.00,2013-04-13 13:53:00,
2013-04-13 09:58:00,60.6,44.8,29.98,NNE,18,5.0,5.0,56,0.00,,---,0.00,VWS V14.00,2013-04-13 13:58:00,
2013-04-13 10:03:00,61.0,45.2,29.98,North,9,1.0,5.0,56,0.00,,---,0.00,VWS V14.00,2013-04-13 14:03:00,
2013-04-13 10:08:00,61.5,45.2,29.98,North,5,3.0,5.0,55,0.00,,---,0.00,VWS V14.00,2013-04-13 14:08:00,
2013-04-13 10:13:00,61.8,45.0,29.98,North,9,0.0,5.0,54,0.00,,---,0.00,VWS V14.00,2013-04-13 14:13:00,
2013-04-13 10:18:00,62.4,45.5,29.98,NNE,20,6.0,6.0,54,0.00,,---,0.00,VWS V14.00,2013-04-13 14:18:00,
2013-04-13 10:23:00,63.1,45.7,29.99,East,80,3.0,6.0,53,0.00,,---,0.00,VWS V14.00,2013-04-13 14:23:00,
2013-04-13 10:29:00,63.6,46.2,29.98,East,79,1.0,2.0,53,0.00,,---,0.00,VWS V14.00,2013-04-13 14:29:00,
2013-04-13 10:34:00,64.4,46.4,29.98,ENE,71,0.0,3.0,52,0.00,,---,0.00,VWS V14.00,2013-04-13 14:34:00,
2013-04-13 10:39:00,65.0,45.9,29.99,ENE,61,1.0,5.0,50,0.00,,---,0.00,VWS V14.00,2013-04-13 14:39:00,
2013-04-13 10:44:00,65.2,43.9,29.99,ENE,65,0.0,5.0,46,0.00,,---,0.00,VWS V14.00,2013-04-13 14:44:00,
2013-04-13 10:49:00,65.4,45.2,29.98,ENE,65,1.0,5.0,48,0.00,,---,0.00,VWS V14.00,2013-04-13 14:49:00,
2013-04-13 10:54:00,65.8,45.6,29.99,ENE,71,4.0,5.0,48,0.00,,---,0.00,VWS V14.00,2013-04-13 14:54:00,
2013-04-13 10:59:00,65.8,44.5,29.99,NE,41,0.0,7.0,46,0.00,,---,0.00,VWS V14.00,2013-04-13 14:59:00,
2013-04-13 11:04:00,66.0,44.7,29.99,ENE,65,2.0,7.0,46,0.00,,---,0.00,VWS V14.00,2013-04-13 15:04:00,
2013-04-13 11:10:00,66.2,44.8,29.99,NNE,26,2.0,7.0,46,0.00,,---,0.00,VWS V14.00,2013-04-13 15:10:00,
2013-04-13 11:15:00,66.5,45.7,29.99,NE,40,3.0,7.0,47,0.00,,---,0.00,VWS V14.00,2013-04-13 15:15:00,
2013-04-13 11:20:00,66.4,45.6,29.99,NE,56,0.0,7.0,47,0.00,,---,0.00,VWS V14.00,2013-04-13 15:20:00,
2013-04-13 11:25:00,66.7,45.3,29.99,NE,48,3.0,7.0,46,0.00,,---,0.00,VWS V14.00,2013-04-13 15:25:00,
2013-04-13 11:30:00,66.9,45.5,29.99,ENE,66,2.0,5.0,46,0.00,,---,0.00,VWS V14.00,2013-04-13 15:30:00,
2013-04-13 11:35:00,67.1,46.2,29.99,NE,45,0.0,5.0,47,0.00,,---,0.00,VWS V14.00,2013-04-13 15:35:00,
2013-04-13 11:41:00,67.3,45.2,29.99,East,97,6.0,8.0,45,0.00,,---,0.00,VWS V14.00,2013-04-13 15:41:00,
2013-04-13 11:45:00,67.5,44.2,29.99,ENE,63,1.0,8.0,43,0.00,,---,0.00,VWS V14.00,2013-04-13 15:45:00,
2013-04-13 11:51:00,67.8,44.5,29.99,NE,55,3.0,8.0,43,0.00,,---,0.00,VWS V14.00,2013-04-13 15:51:00,
2013-04-13 11:56:00,68.1,42.9,29.99,East,83,4.0,8.0,40,0.00,,---,0.00,VWS V14.00,2013-04-13 15:56:00,
2013-04-13 12:01:00,68.3,43.7,29.99,NNE,15,2.0,5.0,41,0.00,,---,0.00,VWS V14.00,2013-04-13 16:01:00,
2013-04-13 12:06:00,68.4,43.8,29.99,North,11,1.0,5.0,41,0.00,,---,0.00,VWS V14.00,2013-04-13 16:06:00,
2013-04-13 12:11:00,68.8,44.8,29.98,North,11,0.0,5.0,42,0.00,,---,0.00,VWS V14.00,2013-04-13 16:11:00,
2013-04-13 12:17:00,69.7,43.0,29.98,North,10,2.0,5.0,38,0.00,,---,0.00,VWS V14.00,2013-04-13 16:17:00,
2013-04-13 12:22:00,70.0,43.9,29.98,NNE,25,1.0,5.0,39,0.00,,---,0.00,VWS V14.00,2013-04-13 16:22:00,
2013-04-13 12:28:00,69.9,43.2,29.98,NNW,336,2.0,4.0,38,0.00,,---,0.00,VWS V14.00,2013-04-13 16:28:00,
2013-04-13 12:33:00,70.2,45.4,29.98,NNW,344,1.0,6.0,41,0.00,,---,0.00,VWS V14.00,2013-04-13 16:33:00,
2013-04-13 12:38:00,70.5,45.0,29.98,ENE,78,1.0,6.0,40,0.00,,---,0.00,VWS V14.00,2013-04-13 16:38:00,
2013-04-13 12:43:00,70.7,44.5,29.98,ENE,74,1.0,6.0,39,0.00,,---,0.00,VWS V14.00,2013-04-13 16:43:00,
2013-04-13 12:48:00,70.6,44.5,29.97,NNW,340,2.0,8.0,39,0.00,,---,0.00,VWS V14.00,2013-04-13 16:48:00,
2013-04-13 12:53:00,71.0,44.8,29.97,West,261,2.0,8.0,39,0.00,,---,0.00,VWS V14.00,2013-04-13 16:53:00,
2013-04-13 12:58:00,71.8,44.8,29.97,West,275,2.0,4.0,38,0.00,,---,0.00,VWS V14.00,2013-04-13 16:58:00,
2013-04-13 13:03:00,72.5,45.5,29.97,WNW,286,0.0,5.0,38,0.00,,---,0.00,VWS V14.00,2013-04-13 17:03:00,
2013-04-13 13:08:00,72.9,44.4,29.97,North,11,1.0,6.0,36,0.00,,---,0.00,VWS V14.00,2013-04-13 17:08:00,
2013-04-13 13:13:00,72.5,45.5,29.97,East,99,5.0,6.0,38,0.00,,---,0.00,VWS V14.00,2013-04-13 17:13:00,
2013-04-13 13:19:00,72.2,45.2,29.97,SE,138,5.0,7.0,38,0.00,,---,0.00,VWS V14.00,2013-04-13 17:19:00,
2013-04-13 13:24:00,72.1,44.4,29.96,South,169,0.0,7.0,37,0.00,,---,0.00,VWS V14.00,2013-04-13 17:24:00,
2013-04-13 13:29:00,72.4,46.7,29.96,WNW,290,1.0,4.0,40,0.00,,---,0.00,VWS V14.00,2013-04-13 17:29:00,
2013-04-13 13:34:00,73.1,45.3,29.96,West,278,0.0,4.0,37,0.00,,---,0.00,VWS V14.00,2013-04-13 17:34:00,
2013-04-13 13:39:00,73.7,45.1,29.95,West,260,1.0,4.0,36,0.00,,---,0.00,VWS V14.00,2013-04-13 17:39:00,
2013-04-13 13:44:00,73.8,44.5,29.95,North,360,0.0,5.0,35,0.00,,---,0.00,VWS V14.00,2013-04-13 17:44:00,
2013-04-13 13:49:00,73.8,44.5,29.95,North,355,4.0,5.0,35,0.00,,---,0.00,VWS V14.00,2013-04-13 17:49:00,
2013-04-13 13:54:00,73.9,43.0,29.95,NE,52,0.0,6.0,33,0.00,,---,0.00,VWS V14.00,2013-04-13 17:54:00,
2013-04-13 13:59:00,74.1,45.5,29.95,NNE,15,2.0,4.0,36,0.00,,---,0.00,VWS V14.00,2013-04-13 17:59:00,
2013-04-13 14:04:00,74.5,45.1,29.95,WSW,257,0.0,6.0,35,0.00,,---,0.00,VWS V14.00,2013-04-13 18:04:00,
2013-04-13 14:09:00,75.1,45.6,29.95,WNW,290,2.0,6.0,35,0.00,,---,0.00,VWS V14.00,2013-04-13 18:09:00,
2013-04-13 14:14:00,75.7,46.1,29.95,WNW,300,1.0,6.0,35,0.00,,---,0.00,VWS V14.00,2013-04-13 18:14:00,
2013-04-13 14:19:00,75.8,43.0,29.95,WNW,291,1.0,7.0,31,0.00,,---,0.00,VWS V14.00,2013-04-13 18:19:00,
2013-04-13 14:24:00,75.8,43.0,29.95,WSW,252,0.0,7.0,31,0.00,,---,0.00,VWS V14.00,2013-04-13 18:24:00,
2013-04-13 14:27:00,75.9,44.8,29.95,SW,219,0.0,0.0,33,0.00,,---,0.00,VWS V14.00,2013-04-13 18:27:00,
2013-04-13 14:32:00,76.2,44.2,29.94,SW,236,0.0,4.0,32,0.00,,---,0.00,VWS V14.00,2013-04-13 18:32:00,
2013-04-13 14:37:00,76.3,45.1,29.94,West,272,0.0,4.0,33,0.00,,---,0.00,VWS V14.00,2013-04-13 18:37:00,
2013-04-13 14:42:00,76.4,41.8,29.94,NNW,347,0.0,4.0,29,0.00,,---,0.00,VWS V14.00,2013-04-13 18:42:00,
2013-04-13 14:47:00,76.5,44.5,29.94,ESE,113,1.0,6.0,32,0.00,,---,0.00,VWS V14.00,2013-04-13 18:47:00,
2013-04-13 14:52:00,76.3,45.1,29.94,NE,49,4.0,6.0,33,0.00,,---,0.00,VWS V14.00,2013-04-13 18:52:00,
2013-04-13 14:57:00,76.0,43.2,29.93,NE,42,0.0,2.0,31,0.00,,---,0.00,VWS V14.00,2013-04-13 18:57:00,
2013-04-13 15:02:00,76.0,44.8,29.93,NE,39,1.0,4.0,33,0.00,,---,0.00,VWS V14.00,2013-04-13 19:02:00,
2013-04-13 15:07:00,76.5,46.8,29.93,NNW,336,0.0,5.0,35,0.00,,---,0.00,VWS V14.00,2013-04-13 19:07:00,
2013-04-13 15:12:00,76.6,45.4,29.93,NE,48,5.0,6.0,33,0.00,,---,0.00,VWS V14.00,2013-04-13 19:12:00,
2013-04-13 15:17:00,76.3,47.4,29.93,SSE,156,0.0,7.0,36,0.00,,---,0.00,VWS V14.00,2013-04-13 19:17:00,
2013-04-13 15:22:00,76.1,43.3,29.93,North,355,1.0,7.0,31,0.00,,---,0.00,VWS V14.00,2013-04-13 19:22:00,
2013-04-13 15:27:00,76.1,44.1,29.93,North,350,0.0,2.0,32,0.00,,---,0.00,VWS V14.00,2013-04-13 19:27:00,
2013-04-13 15:32:00,76.4,45.2,29.93,NNW,341,2.0,4.0,33,0.00,,---,0.00,VWS V14.00,2013-04-13 19:32:00,
2013-04-13 15:37:00,77.1,44.2,29.92,NNW,338,0.0,4.0,31,0.00,,---,0.00,VWS V14.00,2013-04-13 19:37:00,
2013-04-13 15:42:00,77.7,43.8,29.92,NW,319,0.0,7.0,30,0.00,,---,0.00,VWS V14.00,2013-04-13 19:42:00,
2013-04-13 15:47:00,78.0,44.1,29.92,West,266,0.0,7.0,30,0.00,,---,0.00,VWS V14.00,2013-04-13 19:47:00,
2013-04-13 15:52:00,78.3,46.9,29.92,WNW,295,2.0,7.0,33,0.00,,---,0.00,VWS V14.00,2013-04-13 19:52:00,
2013-04-13 15:57:00,78.1,43.3,29.92,NNE,13,0.0,1.0,29,0.00,,---,0.00,VWS V14.00,2013-04-13 19:57:00,
2013-04-13 16:02:00,78.0,43.2,29.92,WNW,300,4.0,6.0,29,0.00,,---,0.00,VWS V14.00,2013-04-13 20:02:00,
2013-04-13 16:07:00,78.0,42.3,29.92,North,351,0.0,6.0,28,0.00,,---,0.00,VWS V14.00,2013-04-13 20:07:00,
2013-04-13 16:12:00,78.2,42.5,29.92,North,5,1.0,6.0,28,0.00,,---,0.00,VWS V14.00,2013-04-13 20:12:00,
2013-04-13 16:17:00,78.3,41.6,29.91,NE,49,7.0,9.0,27,0.00,,---,0.00,VWS V14.00,2013-04-13 20:17:00,
2013-04-13 16:22:00,78.3,40.6,29.91,NNE,28,7.0,9.0,26,0.00,,---,0.00,VWS V14.00,2013-04-13 20:22:00,
2013-04-13 16:27:00,78.1,39.5,29.91,ENE,67,1.0,3.0,25,0.00,,---,0.00,VWS V14.00,2013-04-13 20:27:00,
2013-04-13 16:32:00,78.0,41.3,29.91,ENE,67,0.0,5.0,27,0.00,,---,0.00,VWS V14.00,2013-04-13 20:32:00,
2013-04-13 16:37:00,78.2,43.4,29.91,NW,307,1.0,5.0,29,0.00,,---,0.00,VWS V14.00,2013-04-13 20:37:00,
2013-04-13 16:42:00,78.2,40.5,29.91,NNE,19,0.0,5.0,26,0.00,,---,0.00,VWS V14.00,2013-04-13 20:42:00,
2013-04-13 16:47:00,78.1,41.4,29.91,NNE,23,0.0,5.0,27,0.00,,---,0.00,VWS V14.00,2013-04-13 20:47:00,
2013-04-13 16:52:00,78.0,42.3,29.91,East,90,4.0,7.0,28,0.00,,---,0.00,VWS V14.00,2013-04-13 20:52:00,
2013-04-13 16:57:00,77.9,41.3,29.90,NNE,24,3.0,4.0,27,0.00,,---,0.00,VWS V14.00,2013-04-13 20:57:00,
2013-04-13 17:02:00,78.0,41.3,29.91,West,280,1.0,4.0,27,0.00,,---,0.00,VWS V14.00,2013-04-13 21:02:00,
2013-04-13 17:07:00,78.3,42.5,29.91,NE,34,1.0,5.0,28,0.00,,---,0.00,VWS V14.00,2013-04-13 21:07:00,
2013-04-13 17:12:00,78.2,43.4,29.90,NE,34,2.0,5.0,29,0.00,,---,0.00,VWS V14.00,2013-04-13 21:12:00,
2013-04-13 17:17:00,78.2,42.5,29.90,NNE,30,0.0,8.0,28,0.00,,---,0.00,VWS V14.00,2013-04-13 21:17:00,
2013-04-13 17:22:00,78.1,42.4,29.91,NNE,29,2.0,8.0,28,0.00,,---,0.00,VWS V14.00,2013-04-13 21:22:00,
2013-04-13 17:27:00,77.9,44.0,29.90,NE,49,3.0,4.0,30,0.00,,---,0.00,VWS V14.00,2013-04-13 21:27:00,
2013-04-13 17:32:00,77.7,42.9,29.90,NNE,31,2.0,6.0,29,0.00,,---,0.00,VWS V14.00,2013-04-13 21:32:00,
2013-04-13 17:37:00,77.5,42.8,29.90,ENE,57,4.0,7.0,29,0.00,,---,0.00,VWS V14.00,2013-04-13 21:37:00,
2013-04-13 17:42:00,77.3,45.2,29.90,ENE,72,0.0,7.0,32,0.00,,---,0.00,VWS V14.00,2013-04-13 21:42:00,
2013-04-13 17:47:00,77.5,43.7,29.90,NE,51,5.0,7.0,30,0.00,,---,0.00,VWS V14.00,2013-04-13 21:47:00,
2013-04-13 17:52:00,77.3,42.6,29.91,NE,43,2.0,10.0,29,0.00,,---,0.00,VWS V14.00,2013-04-13 21:52:00,
2013-04-13 17:57:00,77.3,42.6,29.91,WSW,256,0.0,1.0,29,0.00,,---,0.00,VWS V14.00,2013-04-13 21:57:00,
2013-04-13 18:02:00,77.6,42.9,29.91,West,273,1.0,3.0,29,0.00,,---,0.00,VWS V14.00,2013-04-13 22:02:00,
2013-04-13 18:07:00,77.7,44.7,29.91,North,360,0.0,4.0,31,0.00,,---,0.00,VWS V14.00,2013-04-13 22:07:00,
2013-04-13 18:12:00,78.0,43.2,29.91,East,84,2.0,5.0,29,0.00,,---,0.00,VWS V14.00,2013-04-13 22:12:00,
2013-04-13 18:17:00,77.6,43.7,29.91,ENE,65,2.0,5.0,30,0.00,,---,0.00,VWS V14.00,2013-04-13 22:17:00,
2013-04-13 18:22:00,77.5,44.5,29.92,ENE,67,2.0,5.0,31,0.00,,---,0.00,VWS V14.00,2013-04-13 22:22:00,
2013-04-13 18:27:00,77.2,42.5,29.91,ESE,104,0.0,0.0,29,0.00,,---,0.00,VWS V14.00,2013-04-13 22:27:00,
2013-04-13 18:32:00,77.2,42.5,29.91,ESE,104,0.0,1.0,29,0.00,,---,0.00,VWS V14.00,2013-04-13 22:32:00,
2013-04-13 18:37:00,77.2,43.4,29.91,ESE,103,1.0,1.0,30,0.00,,---,0.00,VWS V14.00,2013-04-13 22:37:00,
2013-04-13 18:42:00,77.2,44.2,29.91,ESE,104,0.0,2.0,31,0.00,,---,0.00,VWS V14.00,2013-04-13 22:42:00,
2013-04-13 18:47:00,77.0,44.1,29.91,ESE,104,0.0,4.0,31,0.00,,---,0.00,VWS V14.00,2013-04-13 22:47:00,
2013-04-13 18:52:00,76.7,44.7,29.91,ESE,103,1.0,4.0,32,0.00,,---,0.00,VWS V14.00,2013-04-13 22:52:00,
2013-04-13 18:57:00,76.3,45.1,29.91,ESE,103,4.0,4.0,33,0.00,,---,0.00,VWS V14.00,2013-04-13 22:57:00,
2013-04-13 19:02:00,76.0,43.2,29.91,ESE,103,0.0,5.0,31,0.00,,---,0.00,VWS V14.00,2013-04-13 23:02:00,
2013-04-13 19:07:00,75.8,43.9,29.92,ESE,103,0.0,5.0,32,0.00,,---,0.00,VWS V14.00,2013-04-13 23:07:00,
2013-04-13 19:17:00,75.2,44.9,29.92,ESE,102,0.0,0.0,34,0.00,,---,0.00,VWS V14.00,2013-04-13 23:17:00,
2013-04-13 19:22:00,74.9,45.4,29.92,ESE,102,0.0,1.0,35,0.00,,---,0.00,VWS V14.00,2013-04-13 23:22:00,
2013-04-13 19:27:00,74.5,44.3,29.91,ESE,102,0.0,0.0,34,0.00,,---,0.00,VWS V14.00,2013-04-13 23:27:00,
2013-04-13 19:32:00,74.1,46.2,29.92,ESE,102,0.0,1.0,37,0.00,,---,0.00,VWS V14.00,2013-04-13 23:32:00,
2013-04-13 19:37:00,73.6,47.1,29.92,ESE,102,0.0,1.0,39,0.00,,---,0.00,VWS V14.00,2013-04-13 23:37:00,
2013-04-13 19:42:00,73.0,47.9,29.92,ESE,102,0.0,1.0,41,0.00,,---,0.00,VWS V14.00,2013-04-13 23:42:00,
2013-04-13 19:47:00,72.4,48.7,29.92,ESE,102,0.0,1.0,43,0.00,,---,0.00,VWS V14.00,2013-04-13 23:47:00,
2013-04-13 19:52:00,71.8,48.7,29.92,ESE,102,0.0,1.0,44,0.00,,---,0.00,VWS V14.00,2013-04-13 23:52:00,
2013-04-13 19:57:00,71.1,49.3,29.92,ESE,102,0.0,0.0,46,0.00,,---,0.00,VWS V14.00,2013-04-13 23:57:00,
2013-04-13 20:02:00,70.4,48.7,29.92,ESE,102,0.0,0.0,46,0.00,,---,0.00,VWS V14.00,2013-04-14 00:02:00,
2013-04-13 20:07:00,69.7,48.6,29.93,ESE,102,0.0,0.0,47,0.00,,---,0.00,VWS V14.00,2013-04-14 00:07:00,
2013-04-13 20:12:00,69.0,48.0,29.93,ESE,102,0.0,0.0,47,0.00,,---,0.00,VWS V14.00,2013-04-14 00:12:00,
2013-04-13 20:17:00,68.3,47.9,29.93,ESE,102,0.0,0.0,48,0.00,,---,0.00,VWS V14.00,2013-04-14 00:17:00,
2013-04-13 20:22:00,67.8,48.0,29.93,ESE,102,0.0,1.0,49,0.00,,---,0.00,VWS V14.00,2013-04-14 00:22:00,
2013-04-13 20:27:00,67.2,48.5,29.93,ESE,102,0.0,0.0,51,0.00,,---,0.00,VWS V14.00,2013-04-14 00:27:00,
2013-04-13 20:32:00,66.7,48.5,29.93,ESE,102,0.0,0.0,52,0.00,,---,0.00,VWS V14.00,2013-04-14 00:32:00,
2013-04-13 20:37:00,66.2,48.1,29.94,ESE,102,0.0,0.0,52,0.00,,---,0.00,VWS V14.00,2013-04-14 00:37:00,
2013-04-13 20:42:00,65.8,48.2,29.94,ESE,102,0.0,0.0,53,0.00,,---,0.00,VWS V14.00,2013-04-14 00:42:00,
2013-04-13 20:47:00,65.4,48.3,29.94,ESE,102,0.0,0.0,54,0.00,,---,0.00,VWS V14.00,2013-04-14 00:47:00,
2013-04-13 20:52:00,64.9,47.9,29.94,ESE,102,0.0,0.0,54,0.00,,---,0.00,VWS V14.00,2013-04-14 00:52:00,
2013-04-13 20:57:00,64.5,48.0,29.94,ESE,102,0.0,0.0,55,0.00,,---,0.00,VWS V14.00,2013-04-14 00:57:00,
2013-04-13 21:02:00,64.0,47.0,29.95,ESE,102,0.0,0.0,54,0.00,,---,0.00,VWS V14.00,2013-04-14 01:02:00,
2013-04-13 21:07:00,63.6,46.7,29.95,ESE,102,0.0,0.0,54,0.00,,---,0.00,VWS V14.00,2013-04-14 01:07:00,
2013-04-13 21:12:00,63.3,46.9,29.95,ESE,102,0.0,0.0,55,0.00,,---,0.00,VWS V14.00,2013-04-14 01:12:00,
2013-04-13 21:17:00,62.9,46.5,29.95,ESE,102,0.0,0.0,55,0.00,,---,0.00,VWS V14.00,2013-04-14 01:17:00,
2013-04-13 21:22:00,62.5,47.1,29.95,ESE,102,0.0,0.0,57,0.00,,---,0.00,VWS V14.00,2013-04-14 01:22:00,
2013-04-13 21:27:00,62.2,46.3,29.96,ESE,102,0.0,0.0,56,0.00,,---,0.00,VWS V14.00,2013-04-14 01:27:00,
2013-04-13 21:33:00,61.7,46.8,29.96,ESE,102,0.0,0.0,58,0.00,,---,0.00,VWS V14.00,2013-04-14 01:33:00,
2013-04-13 21:38:00,61.3,47.3,29.96,ESE,102,0.0,0.0,60,0.00,,---,0.00,VWS V14.00,2013-04-14 01:38:00,
2013-04-13 21:43:00,60.9,46.5,29.96,ESE,102,0.0,0.0,59,0.00,,---,0.00,VWS V14.00,2013-04-14 01:43:00,
2013-04-13 21:48:00,60.4,46.0,29.96,ESE,102,0.0,0.0,59,0.00,,---,0.00,VWS V14.00,2013-04-14 01:48:00,
2013-04-13 21:53:00,60.1,46.2,29.97,ESE,102,0.0,0.0,60,0.00,,---,0.00,VWS V14.00,2013-04-14 01:53:00,
2013-04-13 21:58:00,59.7,46.7,29.96,ESE,102,0.0,0.0,62,0.00,,---,0.00,VWS V14.00,2013-04-14 01:58:00,
2013-04-13 22:03:00,59.4,46.8,29.96,ESE,102,0.0,0.0,63,0.00,,---,0.00,VWS V14.00,2013-04-14 02:03:00,
2013-04-13 22:08:00,59.2,47.0,29.97,ESE,102,0.0,0.0,64,0.00,,---,0.00,VWS V14.00,2013-04-14 02:08:00,
2013-04-13 22:13:00,58.9,46.3,29.96,ESE,102,0.0,0.0,63,0.00,,---,0.00,VWS V14.00,2013-04-14 02:13:00,
2013-04-13 22:18:00,58.7,46.2,29.96,ESE,102,0.0,0.0,63,0.00,,---,0.00,VWS V14.00,2013-04-14 02:18:00,
2013-04-13 22:23:00,58.5,46.0,29.96,ESE,102,0.0,0.0,63,0.00,,---,0.00,VWS V14.00,2013-04-14 02:23:00,
2013-04-13 22:28:00,58.4,46.3,29.97,ESE,102,0.0,0.0,64,0.00,,---,0.00,VWS V14.00,2013-04-14 02:28:00,
2013-04-13 22:33:00,58.3,47.4,29.97,ESE,102,0.0,0.0,67,0.00,,---,0.00,VWS V14.00,2013-04-14 02:33:00,
2013-04-13 22:38:00,58.2,47.3,29.97,ESE,102,0.0,0.0,67,0.00,,---,0.00,VWS V14.00,2013-04-14 02:38:00,
2013-04-13 22:43:00,58.0,46.7,29.97,ESE,102,0.0,0.0,66,0.00,,---,0.00,VWS V14.00,2013-04-14 02:43:00,
2013-04-13 22:48:00,57.9,47.4,29.97,ESE,102,0.0,0.0,68,0.00,,---,0.00,VWS V14.00,2013-04-14 02:48:00,
2013-04-13 22:53:00,57.8,46.9,29.97,ESE,102,0.0,0.0,67,0.00,,---,0.00,VWS V14.00,2013-04-14 02:53:00,
2013-04-13 22:58:00,57.7,46.8,29.97,ESE,102,0.0,0.0,67,0.00,,---,0.00,VWS V14.00,2013-04-14 02:58:00,
2013-04-13 23:03:00,57.6,47.1,29.98,ESE,102,0.0,0.0,68,0.00,,---,0.00,VWS V14.00,2013-04-14 03:03:00,
2013-04-13 23:08:00,57.6,47.5,29.98,ESE,102,0.0,0.0,69,0.00,,---,0.00,VWS V14.00,2013-04-14 03:08:00,
2013-04-13 23:13:00,57.5,47.0,29.98,ESE,102,0.0,0.0,68,0.00,,---,0.00,VWS V14.00,2013-04-14 03:13:00,
2013-04-13 23:18:00,57.4,46.9,29.98,ESE,102,0.0,0.0,68,0.00,,---,0.00,VWS V14.00,2013-04-14 03:18:00,
2013-04-13 23:23:00,57.3,46.8,29.98,ESE,102,0.0,0.0,68,0.00,,---,0.00,VWS V14.00,2013-04-14 03:23:00,
2013-04-13 23:28:00,57.1,47.0,29.98,ESE,102,0.0,0.0,69,0.00,,---,0.00,VWS V14.00,2013-04-14 03:28:00,
2013-04-13 23:33:00,57.0,46.9,29.99,ESE,102,0.0,0.0,69,0.00,,---,0.00,VWS V14.00,2013-04-14 03:33:00,
2013-04-13 23:38:00,56.8,46.8,29.99,ESE,102,0.0,0.0,69,0.00,,---,0.00,VWS V14.00,2013-04-14 03:38:00,
2013-04-13 23:43:00,56.7,46.7,29.99,ESE,102,0.0,0.0,69,0.00,,---,0.00,VWS V14.00,2013-04-14 03:43:00,
2013-04-13 23:48:00,56.4,46.4,29.99,ESE,102,0.0,0.0,69,0.00,,---,0.00,VWS V14.00,2013-04-14 03:48:00,
2013-04-13 23:53:00,56.3,47.0,29.99,ESE,102,0.0,0.0,71,0.00,,---,0.00,VWS V14.00,2013-04-14 03:53:00,
2013-04-13 23:58:00,56.1,46.5,29.99,ESE,102,0.0,0.0,70,0.00,,---,0.00,VWS V14.00,2013-04-14 03:58:00,